Weather History for St. Petersburg Airport, FL

Change the Weather History Date:

Tuesday, April 30, 2013

  Actual Average Record
Temperature  
Mean Temperature 79 °F -  
Max Temperature 89 °F 83 °F 91 °F (1991)
Min Temperature 69 °F 67 °F 55 °F (1999)
Cooling Degree Days 14    
Growing Degree Days 29 (Base 50)    
Moisture  
Dew Point 67 °F    
Average Humidity 77    
Maximum Humidity 100    
Minimum Humidity 39    
Precipitation  
Precipitation 1.14 in - - ()
Sea Level Pressure  
Sea Level Pressure 29.97 in    
Wind  
Wind Speed 6 mph (ENE)    
Max Wind Speed 13 mph    
Max Gust Speed -    
Visibility 10 miles    
Events Rain , Thunderstorm    
Averages and records for this station are not official NWS values.
T = Trace of Precipitation, MM = Missing Value Source: NWS Daily Summary

Daily Weather History Graph

Daily Weather History Graph

Search for Another Location

Airport:

Trip Planner

Search our weather history database for the weather conditions in past years. The results will help you decide how hot, cold, wet, or windy it might be!

Date:

Astronomy

Apr. 30, 2013 Rise Set
Actual Time 6:51 AM EDT 8:04 PM EDT
Civil Twilight 6:26 AM EDT 8:29 PM EDT
Nautical Twilight 5:57 AM EDT 8:58 PM EDT
Astronomical Twilight 5:27 AM EDT 9:29 PM EDT
Moon 12:20 AM EDT (4/30) 11:24 AM EDT (4/30)
Length of Visible Light 14h 02m
Length of Day
13h 13m
Waning Gibbous, 70% of the Moon is Illuminated
Apr 30
Waning Gibbous
May 2
Last Quarter
May 9
New
May 18
First Quarter
May 25
Full

Hourly Weather History & Observations

Time (EDT) Temp. Heat Index Dew Point Humidity Pressure Visibility Wind Dir Wind Speed Gust Speed Precip Events Conditions
12:53 AM 73.9 °F - 70.0 °F 87% 29.96 in 10.0 mi Calm Calm - N/A   Clear
1:53 AM 73.0 °F - 69.1 °F 87% 29.96 in 10.0 mi Calm Calm - N/A   Scattered Clouds
2:53 AM 75.0 °F - 70.0 °F 84% 29.95 in 10.0 mi Calm Calm - N/A Thunderstorm Overcast
3:15 AM 75.2 °F - 69.8 °F 83% 29.94 in 10.0 mi NNE 3.5 mph - N/A Thunderstorm Thunderstorm
3:25 AM 75.2 °F - 71.6 °F 89% 29.93 in - NE 9.2 mph - 0.00 in Rain , Thunderstorm Light Thunderstorms and Rain
3:53 AM 69.1 °F - 64.9 °F 87% 29.94 in 10.0 mi ESE 3.5 mph - 0.29 in Rain , Thunderstorm Light Thunderstorms and Rain
4:02 AM 69.8 °F - 66.2 °F 88% 29.95 in 10.0 mi East 5.8 mph - N/A Thunderstorm Thunderstorm
4:53 AM 70.0 °F - 66.9 °F 90% 29.95 in 10.0 mi East 5.8 mph - 0.16 in Rain Light Rain
5:07 AM 69.8 °F - 68.0 °F 94% 29.95 in 9.0 mi East 8.1 mph - 0.50 in Rain , Thunderstorm Heavy Thunderstorms and Rain
5:18 AM 69.8 °F - 68.0 °F 94% 29.95 in 10.0 mi East 8.1 mph - 0.67 in Rain , Thunderstorm Heavy Thunderstorms and Rain
5:33 AM 69.8 °F - 69.8 °F 100% 29.96 in 10.0 mi NE 8.1 mph - 0.68 in Rain , Thunderstorm Light Thunderstorms and Rain
5:53 AM 71.1 °F - 68.0 °F 90% 29.96 in 10.0 mi ENE 11.5 mph - 0.68 in   Overcast
5:56 AM 69.8 °F - 68.0 °F 94% 29.96 in 10.0 mi ENE 10.4 mph - N/A Thunderstorm Overcast
6:23 AM 69.8 °F - 68.0 °F 94% 29.96 in 10.0 mi ENE 10.4 mph - N/A   Scattered Clouds
6:41 AM 71.6 °F - 69.8 °F 94% 29.98 in 10.0 mi East 8.1 mph - N/A   Mostly Cloudy
6:53 AM 71.1 °F - 68.0 °F 90% 29.99 in 10.0 mi ENE 12.7 mph - N/A   Mostly Cloudy
7:53 AM 71.1 °F - 66.0 °F 84% 30.00 in 10.0 mi East 10.4 mph - 0.01 in   Overcast
8:39 AM - - - N/A% 30.01 in 10.0 mi East 5.8 mph - 0.00 in   Overcast
8:53 AM - - - N/A% 30.02 in 10.0 mi East 10.4 mph - 0.00 in   Mostly Cloudy
9:03 AM - - - N/A% 30.00 in 10.0 mi East 6.9 mph - N/A   Mostly Cloudy
9:53 AM 75.0 °F - 66.9 °F 76% 30.00 in 10.0 mi East 5.8 mph - N/A   Partly Cloudy
10:53 AM 79.0 °F - 66.9 °F 66% 30.00 in 10.0 mi East 8.1 mph - N/A   Clear
11:53 AM 82.0 °F 84.1 °F 66.0 °F 58% 29.99 in 10.0 mi East 8.1 mph - N/A   Clear
12:53 PM 84.0 °F 86.5 °F 66.9 °F 56% 29.97 in 10.0 mi East 8.1 mph - N/A   Unknown
1:53 PM 84.0 °F 86.5 °F 66.9 °F 56% 29.96 in 10.0 mi NNE 6.9 mph - N/A   Clear
2:53 PM 86.0 °F 88.8 °F 66.9 °F 53% 29.94 in 10.0 mi NE 8.1 mph - N/A   Clear
3:53 PM 87.1 °F 88.9 °F 64.9 °F 48% 29.92 in 10.0 mi NNE 5.8 mph - N/A   Clear
4:53 PM 89.1 °F 89.0 °F 61.0 °F 39% 29.91 in 10.0 mi North 5.8 mph - N/A   Clear
5:53 PM 86.0 °F 88.8 °F 66.9 °F 53% 29.92 in 10.0 mi WNW 10.4 mph - N/A   Clear
6:53 PM 82.0 °F 84.5 °F 66.9 °F 60% 29.93 in 10.0 mi WNW 6.9 mph - N/A   Partly Cloudy
7:28 PM 80.6 °F 82.7 °F 66.2 °F 61% 29.93 in 10.0 mi West 5.8 mph - N/A Thunderstorm Partly Cloudy
7:53 PM 79.0 °F - 66.9 °F 66% 29.95 in 10.0 mi West 6.9 mph - N/A   Partly Cloudy
8:53 PM 75.9 °F - 66.9 °F 74% 29.99 in 10.0 mi SE 11.5 mph - N/A   Overcast
9:08 PM 75.2 °F - 68.0 °F 78% 29.99 in 10.0 mi ESE 11.5 mph - 0.00 in Rain Light Rain
9:53 PM 73.9 °F - 66.9 °F 79% 30.00 in 10.0 mi South 6.9 mph - 0.00 in   Overcast
10:53 PM 75.2 °F - 68.0 °F 78% 30.01 in 10.0 mi East 4.6 mph - N/A   Mostly Cloudy
11:53 PM 73.0 °F - 68.0 °F 84% 30.00 in 10.0 mi East 9.2 mph - N/A   Clear